Zurück zum Katalog

FENGYUN 1C DEB

AktivPO
NORAD 30345·DEBRIS·🇨🇳 China

Gestartet May 10, 1999 von Taiyuan Satellite Launch Center

Loading…

Nächste Überflüge (nächste 24 Stunden)

TLE

AktuellSource: Space-Track

Epoche: Sep 13, 2026, 04:02 UTC

1 30345U 99025ABG 26256.16820763  .00003419  00000-0  99809-3 0  9999
2 30345  98.9066 333.1703 0017988 149.7452 210.4780 14.44675974 17337

Verfolge FENGYUN 1C DEB in Echtzeit mit AllMySat

Download on the App Store